Flag for Netherlands Weather past 2 weeks in Eindhoven, Netherlands

Now
34 °F

Fog.


Feels Like: 31 °F
Forecast: 29 / 36 °F
Wind: 3 mph from Southwest

Location: Eindhoven Airport

Current Time: Dec 26, 2014 at 8:29:45 AM

Latest Report: Dec 26, 2014 at 7:55 AM


Visibility: 4 mi

Pressure: 30.39 "Hg

Humidity: 93%

Dew point: 32 °F

Location of EindhovenLocation

Historic Weather in Eindhoven — Graph

°F

Eindhoven temperature yesterday

Maximum temperature yesterday: 46 °F (at 12:25 PM)
Minimum temperature yesterday: 34 °F (at 11:25 PM)
Average temperature yesterday: 40 °F

Past Weeks' High & Low Weather Summary

 TemperatureHumidityPressure
High55 °F (Dec 18, 2:55 PM)100% (Dec 13, 11:25 PM)30.39 "Hg (Dec 13, 11:25 PM)
Low30 °F (Dec 26, 2:55 AM)66% (Dec 20, 2:55 PM)29.36 "Hg (Dec 12, 11:55 AM)
Average44 °F89%29.95 "Hg
* Reported Dec 11 7:25 AM — Dec 26 7:25 AM, Eindhoven, Weather by CustomWeather, © 2014

Note: Actual official high and low records may vary slightly from our data, if they occured in-between our weather recording intervals... More about our weather records

Advertising

Eindhoven weather history for previous 24 hours

 ConditionsComfort  
Time TempWeatherWind HumidityBarometerVisibility
7:25 AM
Dec 26
36 °FSprinkles. Partly cloudy.5 mph93%30.39 "Hg3 mi
6:55 AM34 °FFog.3 mph93%30.39 "Hg2 mi
6:25 AM32 °FIce fog.6 mph100%30.39 "Hg4 mi
5:55 AM34 °FFog.6 mph100%30.39 "Hg5 mi
5:25 AM36 °FPartly cloudy.8 mph93%30.39 "HgN/A
4:55 AM34 °FPassing clouds.7 mph100%30.39 "HgN/A
4:25 AM34 °FChilly.7 mph93%30.39 "HgN/A
3:25 AM30 °FIce fog.6 mph93%30.39 "Hg6 mi
2:55 AM30 °FIce fog.5 mph100%30.39 "Hg5 mi
2:25 AM32 °FIce fog.3 mph100%30.39 "Hg5 mi
1:55 AM32 °FIce fog.7 mph100%30.39 "Hg4 mi
1:25 AM32 °FIce fog.5 mph100%30.39 "Hg5 mi
12:55 AM34 °FFog.5 mph100%30.39 "Hg5 mi
12:25 AM34 °FFog.7 mph100%30.39 "Hg4 mi
11:55 PM
Dec 25
34 °FFog.5 mph100%30.39 "Hg6 mi
11:25 PM34 °FPassing clouds.5 mph100%30.39 "HgN/A
10:55 PM36 °FFog.2 mph93%30.36 "Hg6 mi
9:55 PM36 °FPassing clouds.6 mph100%30.36 "HgN/A
9:25 PM36 °FPartly cloudy.6 mph100%30.36 "HgN/A
8:55 PM36 °FPartly cloudy.5 mph100%30.36 "HgN/A
8:25 PM36 °FOvercast.5 mph93%30.33 "HgN/A
7:55 PM36 °FPartly cloudy.3 mph93%30.33 "HgN/A
7:25 PM37 °FPassing clouds.3 mph93%30.33 "HgN/A
6:55 PM37 °FPartly cloudy.5 mph93%30.33 "HgN/A
6:25 PM37 °FPassing clouds.7 mph93%30.30 "HgN/A
5:55 PM39 °FRain showers. Partly cloudy.10 mph87%30.30 "Hg4 mi
5:25 PM41 °FLight rain. Passing clouds.5 mph87%30.30 "HgN/A
4:55 PM41 °FSprinkles. Partly cloudy.9 mph93%30.30 "Hg6 mi
4:25 PM41 °FMostly cloudy.9 mph93%30.27 "HgN/A
3:55 PM41 °FMostly cloudy.8 mph87%30.27 "HgN/A
3:25 PM41 °FBroken clouds.8 mph93%30.27 "HgN/A
2:55 PM43 °FScattered clouds.10 mph87%30.24 "HgN/A
2:25 PM43 °FBroken clouds.10 mph81%30.24 "HgN/A
1:55 PM43 °FBroken clouds.10 mph87%30.24 "HgN/A
1:25 PM43 °FDrizzle. Broken clouds.13 mph87%30.24 "HgN/A
12:59 PM41 °FRain showers. Mostly cloudy.12 mph93%30.24 "HgN/A
12:55 PM41 °FLight rain. Mostly cloudy.17 mph87%30.24 "HgN/A
12:25 PM46 °FBroken clouds.13 mph76%30.24 "HgN/A
11:56 AM45 °FBroken clouds.14 mph81%30.24 "HgN/A
11:55 AM45 °FBroken clouds.15 mph81%30.24 "HgN/A
11:25 AM45 °FPassing clouds.14 mph81%30.24 "HgN/A
10:56 AM43 °FBroken clouds.10 mph87%30.21 "HgN/A
10:55 AM43 °FBroken clouds.12 mph87%30.21 "HgN/A
10:25 AM43 °FDrizzle. Mostly cloudy.12 mph87%30.21 "HgN/A
9:59 AM43 °FBroken clouds.13 mph81%30.21 "HgN/A
9:25 AM41 °FPartly sunny.12 mph87%30.21 "HgN/A
8:55 AM39 °FBroken clouds.12 mph93%30.18 "HgN/A
8:25 AM39 °FOvercast.15 mph93%30.18 "HgN/A
Weather by CustomWeather, © 2014

See weather overviewHow to use our weather pages